CAPE
19 0 0 0 0 0 0 0 0 0 0 0 0 0 0 0 0 0 0 0 0 0 0 0 0 0 0 0 0 0 0 0 1 0 0 0 0 0 0 0 0 0 0
0 0 0 0 0 0 0 0 0 0 0 0 0 0 0 0 0 0 0 0 0 0 0 0 0 0 0 0 0 0 0 0 0 2 1 0 0 0 0 0 0 0 0
0 0 0 0 0 0 0 0 0 0 0 0 0 0 0 0 0 0 0 0 0 0 0 0 0 0 0 1 1 2 2 2 1 3 2 1 0 0 0 0 0 0 0
0 0 0 0 0 0 0 0 0 0 0 0 0 0 0 0 0 0 0 0 0 0 0 0 0 0 0 0 1 1 2 2 1 1 1 1 1 0 0 1 0 1 0
0 0 0 0 0 0 0 0 0 0 0 0 0 0 0 0 0 0 0 0 0 0 0 0 0 0 1 1 2 2 3 4 3 4 5 4 4 3 3 1 2 2 1
0 0 0 0 0 0 0 0 0 0 0 0 0 0 0 0 0 0 0 0 0 0 0 0 1 0 0 2 3 3 3 4 5 5 5 6 4 3 2 3 4 3 2
0 0 0 0 0 0 0 0 0 0 0 0 0 0 0 0 0 0 0 0 0 0 0 1 0 0 1 3 2 3 3 3 4 3 5 5 4 4 3 3 4 3 3
0 0 0 0 0 0 0 0 0 0 0 0 0 0 0 0 0 0 0 0 0 0 0 0 0 1 0 1 1 5 3 2 2 2 3 4 3 3 3 3 3 3 2
0 0 0 0 0 0 0 0 0 0 0 0 0 0 0 0 0 0 0 0 0 0 0 0 1 1 0 0 2 3 0 0 0 2 2 3 0 0 0 0 1 6 3
0 0 0 0 0 0 0 0 0 0 0 0 0 0 0 0 0 0 0 0 0 0 0 0 0 0 0 0 2 3 3 2 3 1 0 0 0 0 0 2 1 2 6
0 0 0 0 0 0 0 0 0 0 0 0 0 0 0 0 0 0 0 0 0 0 0 0 0 0 0 0 1 2 3 2 3 3 3 2 1 1 5 0 0 2 4
0 0 0 0 0 0 0 0 0 0 0 0 0 0 0 0 0 0 0 0 0 0 0 0 0 0 0 0 0 0 0 2 3 3 3 2 3 2 2 0 0 0 1
0 0 0 0 0 0 0 0 0 0 0 0 0 0 0 0 0 0 0 0 0 0 0 0 0 0 0 0 0 0 0 3 4 4 5 4 2 4 2 2 0 0 0
0 0 0 0 0 0 0 0 0 0 0 0 0 0 0 0 0 0 0 0 0 0 0 0 0 0 0 0 0 0 0 1 3 4 4 2 1 2 1 2 3 0 0
0 0 0 0 0 0 0 0 0 0 0 0 0 0 0 0 0 0 0 0 0 0 0 0 0 0 0 0 0 0 0 0 3 3 3 3 1 2 6 1 2 2 2
0 0 0 0 0 0 0 0 0 0 0 0 0 0 0 0 0 0 0 0 0 0 0 0 0 0 0 0 0 0 0 0 1 3 4 3 2 1 2 2 2 3 4
0 0 0 0 0 0 0 0 0 0 0 0 0 0 0 0 0 0 0 0 0 0 0 0 0 0 0 0 0 0 0 0 0 1 1 2 2 1 4 2 2 3 3
0 0 0 0 0 0 0 0 0 0 0 0 0 0 0 0 0 0 0 0 0 0 0 0 0 0 0 0 0 0 0 0 0 0 0 0 1 2 2 2 2 3 3
0 0 0 0 0 0 0 0 0 0 0 0 0 0 0 0 0 0 0 0 0 0 0 0 0 0 0 0 0 0 0 0 0 0 0 0 0 1 2 2 3 1 2
0 0 0 0 0 0 0 0 0 0 0 0 0 0 0 0 0 0 0 0 0 0 0 0 0 0 0 0 0 0 0 0 0 0 0 0 0 0 2 2 2 2 2
0 0 0 0 0 0 0 0 0 0 0 0 0 0 0 0 0 0 0 0 0 0 0 0 0 0 0 0 0 0 0 0 0 0 0 0 0 0 0 1 2 1 1
0 0 0 0 0 0 0 0 0 0 0 0 0 0 0 0 0 0 0 0 0 0 0 0 0 0 0 0 0 0 0 0 0 0 0 0 0 0 0 0 2 2 2
0 0 0 0 0 0 0 0 0 0 0 0 0 0 0 0 0 0 0 0 0 0 0 0 0 0 0 0 0 0 0 0 0 0 0 0 0 0 0 0 0 1 2
0 0 0 0 0 0 0 0 0 0 0 0 0 0 0 0 0 0 0 0 0 0 0 0 0 0 0 0 0 0 0 0 0 0 0 0 0 0 0 0 0 0 2
0 0 0 0 0 0 0 0 0 0 0 0 0 0 0 0 0 0 0 0 0 0 0 0 0 0 0 0 0 0 0 0 0 0 0 0 0 0 0 0 0 0 0
0 0 0 0 0 0 0 0 0 0 0 0 0 0 0 0 0 0 0 0 0 0 0 0 0 0 0 0 0 0 0 0 0 0 0 0 0 0 0 0 0 0 0
CIN
-123 0 0 0 0 0 0 0 0 0 0 0 0 0 0 0 0 0 0 0 0 0 0 0 0 0 0 0 0 0 0 0 0 0 0 0 0 0 0 0 0 0 0
0 0 0 0 0 0 0 0 0 0 0 0 0 0 0 0 0 0 0 0 0 0 0 0 0 0 0 0 0 0 0 0 -1 0 0 0 -1 0 -2 -3 0 0 -4
0 0 0 0 0 0 0 0 0 0 0 0 0 0 0 0 0 0 0 0 0 0 0 0 0 0 0 -2 0 0 0 0 0 0 0 0 0 0 0 0 0 0 0
0 0 0 0 0 0 0 0 0 0 0 0 0 0 0 0 0 0 0 0 0 0 0 0 0 0 0 0 0 0 0 0 0 0 0 0 0 0 0 0 0 0 -1
0 0 0 0 0 0 0 0 0 0 0 0 0 0 0 0 0 0 0 0 0 0 0 0 0 0 0 0 0 0 0 0 0 0 0 0 0 0 0 0 0 0 0
0 0 0 0 0 0 0 0 0 0 0 0 0 0 0 0 0 0 0 0 0 0 0 0 0 0 0 0 0 0 0 0 0 0 0 0 0 0 0 0 0 0 0
0 0 0 0 0 0 0 0 0 0 0 0 0 0 0 0 0 0 0 0 0 0 0 0 0 0 0 0 0 0 0 0 0 0 0 0 0 0 0 0 0 0 0
0 0 0 0 0 0 0 0 0 0 0 -8 0 0 0 0 0 0 0 0 0 0 0 0 0 0 0 0 0 0 0 0 0 0 0 0 0 0 0 0 0 0 0
0 0 0 0 0 0 0 0 0 0 0 0 0 0 0 0 0 0 0 0 0 0 0 0 0 0 0 0 0 0 0 0 0 0 0 0 0 0 0 0 0 0 0
0 0 0 0 0 0 0 0 0 0 0 0 0 0 0 0 0 0 0 0 0 0 0 0 0 0 0 0 0 0 0 0 0 0 0 0 0 0 0 0 0 0 0
0 0 0 0 0 0 0 0 0 0 0 0 0 0 0 0 0 0 0 0 0 0 0 0 0 0 0 0 0 0 0 0 0 0 0 0 0 0 -2 0 0 0 0
0 0 0 0 0 0 0 0 0 0 0 0 0 0 0 0 0 0 0 0 0 0 0 0 0 0 0 0 0 0 0 0 0 0 0 0 0 0 0 0 0 0 -7
0 0 0 0 0 0 0 0 0 0 0 0 0 0 0 0 0 0 0 0 0 0 0 0 0 0 0 0 0 0 0 0 0 0 0 0 0 0 0 0 0 0 -1
0 0 0 0 0 0 0 0 0 0 0 0 0 0 0 0 0 0 0 0 0 0 0 0 0 0 0 0 0 0 0 0 0 0 0 0 0 0 0 0 0 0 0
0 0 0 0 0 0 0 0 0 0 0 0 0 0 0 0 0 0 0 0 0 0 0 0 0 0 0 0 0 0 0 0 0 0 0 0 0 0 0 0 0 0 0
0 0 0 0 0 0 0 0 0 0 0 0 0 0 0 0 0 0 0 0 0 0 0 0 0 0 0 0 0 0 0 0 0 0 0 0 0 0 0 0 0 0 0
0 0 0 0 0 0 0 0 0 0 0 0 0 0 0 0 0 0 0 0 0 0 0 0 0 0 0 0 0 0 0 0 0 0 0 0 0 0 0 0 0 0 0
0 0 0 0 0 0 0 0 0 0 0 0 0 0 0 0 0 0 0 0 0 0 0 0 0 0 0 0 0 0 0 0 0 0 0 0 0 0 0 0 0 0 0
0 0 0 0 0 0 0 0 0 0 0 0 0 0 0 0 0 0 0 0 0 0 0 0 0 0 0 0 0 0 0 0 0 0 0 0 0 0 0 0 0 0 0
0 0 0 0 0 0 0 0 0 0 0 0 0 0 0 0 0 0 0 0 0 0 0 0 0 0 0 0 0 0 0 0 0 0 0 0 0 0 0 0 0 0 0
0 0 0 0 0 0 0 0 0 0 0 0 0 0 0 0 0 0 0 0 0 0 0 0 0 0 0 0 0 0 0 0 0 0 0 0 0 0 0 0 0 0 0
0 0 0 0 0 0 0 0 0 0 0 0 0 0 0 0 0 0 0 0 0 0 0 0 0 0 0 0 0 0 0 0 0 0 0 0 0 0 0 0 0 0 0
0 0 0 0 0 0 0 0 0 0 0 0 0 0 0 0 0 0 0 0 0 0 0 0 0 0 0 0 0 0 0 0 0 0 0 0 0 0 0 0 0 0 0
0 0 0 0 0 0 0 0 0 0 0 0 0 0 0 0 0 0 0 0 0 0 0 0 0 0 0 0 0 0 0 0 0 0 0 0 0 0 0 0 0 0 0
0 0 0 0 0 0 0 0 0 0 0 0 0 0 0 0 0 0 0 0 0 0 0 0 0 0 0 0 0 0 0 0 0 0 0 0 0 0 0 0 0 0 0
0 0 0 0 0 0 0 0 0 0 0 0 0 0 0 0 0 0 0 0 0 0 0 0 0 0 0 0 0 0 0 0 0 0 0 0 0 0 0 0 0 0 0
Wind_Speed
1 2 4 6 7 8 10 12 14 15 17 19 21 23 25 28 30 32 33 33 34 35 36 36 37 36 37 37 37 38 38 39 43 45 41 40 40 39 38 36 35 34 33
4 4 5 6 7 9 11 14 15 16 19 21 22 24 26 30 32 33 34 34 36 36 35 36 37 36 36 37 37 38 38 37 39 44 41 41 39 38 39 38 36 32 30
4 5 6 6 7 9 12 14 16 18 20 21 23 26 28 30 33 35 34 34 34 34 34 34 34 35 36 35 37 37 36 34 35 38 41 39 38 36 36 35 34 33 32
4 6 6 8 9 11 13 15 18 20 22 23 24 26 28 31 33 34 33 33 33 32 32 33 34 35 35 37 38 38 37 37 36 35 35 35 33 35 34 35 36 34 35
4 7 7 9 11 13 15 17 19 21 22 23 24 27 29 32 32 33 32 31 32 32 32 33 34 32 36 38 40 38 36 32 31 32 31 31 33 37 36 34 32 33 33
6 7 9 11 12 14 16 18 21 23 24 24 25 27 29 30 32 32 31 31 32 33 33 34 34 37 40 40 38 35 30 29 26 28 28 33 31 33 34 34 34 32 36
7 8 10 11 13 15 18 20 23 24 24 24 24 26 28 29 31 32 32 32 32 34 34 34 36 37 38 40 38 34 32 29 27 27 30 32 32 30 30 30 29 29 30
8 10 11 12 15 17 19 21 22 23 24 23 24 25 26 27 31 33 33 33 33 33 35 36 36 38 40 42 40 40 36 32 31 28 24 24 24 25 24 27 24 28 27
9 10 12 14 17 18 20 21 22 22 23 22 23 25 26 27 31 32 32 32 32 34 35 37 39 39 41 42 41 44 42 34 29 25 23 21 22 21 24 31 32 28 24
10 11 14 16 18 19 20 20 22 21 22 22 23 25 27 27 29 30 31 30 34 36 36 37 39 40 40 41 43 44 42 37 29 31 31 30 29 27 19 27 27 21 13
11 13 15 17 19 19 19 21 21 21 21 23 23 25 26 27 28 29 30 30 33 35 36 37 38 38 38 37 42 42 39 36 31 31 31 31 29 29 26 25 26 14 9
12 15 16 18 18 19 19 20 21 21 22 23 24 25 25 27 27 28 30 30 31 32 35 35 36 34 27 32 39 32 34 38 38 31 27 33 33 24 14 16 16 14 9
14 15 17 17 19 19 19 20 21 22 23 24 24 25 26 26 26 29 30 30 29 30 32 34 35 33 30 38 43 39 38 38 35 31 26 25 18 19 17 13 13 13 13
15 15 17 17 18 19 19 21 22 22 23 25 25 25 25 25 26 28 29 28 27 27 30 32 33 32 34 39 42 41 40 37 32 25 24 25 18 14 12 9 12 12 14
15 16 16 17 18 19 20 21 22 22 23 25 26 25 26 26 26 26 28 27 25 26 29 31 33 32 34 36 40 43 42 38 34 26 23 21 17 16 15 10 11 12 12
16 16 16 17 18 20 20 21 22 22 22 23 24 25 26 27 25 25 26 26 25 25 27 30 31 30 33 35 38 41 40 40 31 24 25 20 16 17 15 12 13 15 13
16 17 17 18 19 20 22 22 23 24 23 23 22 23 25 26 26 25 24 23 25 25 26 28 30 30 31 34 37 41 37 34 29 22 21 19 17 14 14 11 9 9 10
16 17 18 18 19 20 22 23 23 24 24 24 24 22 22 24 25 26 24 22 23 25 26 25 28 29 31 32 35 40 39 35 25 22 19 18 17 15 11 11 8 5 6
17 18 18 18 18 20 21 23 24 24 25 25 24 24 24 24 24 24 24 22 23 25 26 27 27 28 28 29 31 27 29 29 12 15 15 19 17 17 15 12 9 9 7
17 16 17 18 19 19 19 21 22 25 25 25 25 25 24 24 24 24 24 22 23 24 26 27 27 28 28 29 28 27 25 25 18 16 13 14 15 15 16 14 11 10 9
19 19 18 19 20 21 22 22 23 23 24 25 25 25 25 24 23 24 24 23 23 25 26 27 28 28 29 30 31 29 28 25 19 17 14 12 12 13 16 14 11 9 7
19 18 19 20 21 21 22 23 23 24 24 25 25 25 25 24 24 24 24 24 24 25 26 26 27 28 29 29 30 31 30 28 25 19 16 13 12 14 12 14 16 12 8
18 19 20 21 21 22 23 23 24 24 24 24 25 25 25 24 24 25 24 25 26 26 26 27 27 28 29 29 29 30 30 29 27 23 18 15 15 16 11 19 16 14 13
19 19 20 20 21 21 22 23 23 23 24 24 24 25 26 26 25 25 25 25 25 27 25 26 27 28 28 28 28 29 29 29 28 27 25 24 22 21 18 20 21 20 16
19 19 20 20 20 20 21 22 22 22 23 24 24 25 25 25 26 26 26 26 26 25 26 25 26 27 28 28 28 28 28 28 27 27 27 27 27 26 25 23 22 23 23
17 18 19 19 19 20 20 20 21 21 22 22 23 24 25 26 26 27 27 27 27 26 26 26 27 28 29 29 29 30 29 30 29 28 27 27 28 28 26 26 25 25 25
Wind_Direction
97 34 35 23 11 12 9 360 357 359 357 355 352 352 352 349 348 347 344 343 340 338 337 336 334 334 333 332 330 328 326 324 319 321 325 327 325 324 323 322 321 320 317
89 59 27 24 3 357 354 355 358 358 355 351 356 354 352 350 349 349 346 345 341 340 340 339 338 339 338 337 335 332 330 329 327 325 327 327 326 326 324 323 322 322 317
69 47 27 24 17 5 359 360 0 358 358 359 358 354 351 350 346 347 347 346 346 346 346 346 345 345 342 342 340 337 335 334 331 329 328 329 328 328 328 327 326 325 324
58 30 13 15 17 15 12 5 357 356 357 358 357 356 353 351 350 350 351 350 351 352 354 352 350 348 347 344 341 338 335 332 332 332 333 334 335 334 333 330 328 327 324
30 15 26 27 24 18 6 358 358 358 357 360 358 357 355 353 354 352 354 356 357 358 358 356 354 355 350 346 343 342 344 346 344 341 342 343 342 337 334 335 333 331 328
40 38 36 28 21 11 4 359 357 354 354 354 356 356 356 357 356 358 0 1 1 1 0 358 358 353 349 349 349 352 355 351 350 349 347 344 344 342 339 337 333 334 327
52 41 30 22 13 4 360 359 356 354 355 356 360 2 1 1 359 0 4 5 4 3 3 1 358 358 356 355 356 0 1 2 358 352 347 347 346 348 344 340 337 333 331
45 36 25 14 4 1 359 358 357 359 359 3 5 4 5 4 1 2 6 7 8 10 9 5 5 1 358 356 358 0 4 3 1 359 356 353 353 352 354 349 341 335 334
35 24 14 8 5 1 358 358 0 1 5 8 9 8 6 8 5 5 8 11 14 13 10 9 4 2 355 355 3 1 5 12 10 12 11 8 4 4 2 0 359 351 351
24 15 8 2 0 359 359 1 2 5 8 10 11 12 12 11 10 10 11 14 11 6 8 7 8 4 359 2 5 8 15 19 24 20 20 20 18 17 15 16 12 22 45
18 12 7 4 2 3 1 1 5 9 9 7 10 12 13 15 14 12 12 14 10 8 6 4 11 355 355 352 13 23 28 26 27 25 25 27 29 25 27 35 40 74 121
16 12 6 3 1 3 7 6 8 9 7 8 10 12 15 15 15 12 10 8 9 8 2 1 3 348 337 345 29 36 36 33 31 34 35 29 26 32 32 56 66 87 127
19 13 9 10 8 6 8 8 7 6 8 10 11 11 11 15 15 9 6 1 5 4 6 2 358 351 345 0 13 34 37 34 36 39 37 34 28 36 46 61 87 101 113
20 16 15 16 11 10 12 12 14 13 13 11 9 8 10 12 10 7 5 1 359 359 2 0 356 355 358 6 19 32 35 37 39 38 35 35 37 42 52 61 90 99 107
27 26 21 19 18 18 17 17 18 20 18 16 13 11 7 5 3 4 3 0 351 351 2 2 357 352 353 355 1 26 31 37 40 37 32 34 37 44 64 75 89 94 101
37 28 27 26 24 22 21 21 20 19 18 18 17 15 13 10 1 359 356 355 346 346 357 358 355 349 350 350 354 0 34 37 41 36 38 33 29 55 60 73 84 91 97
44 37 35 30 27 25 23 21 19 17 18 17 14 13 11 7 1 356 350 343 349 353 353 353 352 348 345 348 355 6 33 39 42 41 39 28 33 32 50 59 68 84 93
43 42 35 34 34 30 24 21 20 17 15 12 11 11 6 358 351 350 346 342 347 351 350 343 342 341 343 345 351 7 23 34 45 45 4 14 23 32 32 28 33 64 83
48 46 44 41 35 30 26 23 20 17 16 16 13 9 1 355 351 353 352 345 344 346 345 344 341 339 337 338 342 334 339 341 10 36 22 359 13 12 31 30 46 75 77
42 49 41 35 31 27 25 23 25 23 21 19 16 10 2 356 351 353 356 349 346 347 349 347 343 341 341 339 336 335 333 337 338 346 17 24 17 25 10 20 46 62 66
45 46 46 40 37 36 36 33 31 31 26 22 18 11 5 2 356 358 0 355 353 351 350 349 347 345 344 345 345 339 339 334 333 335 344 1 12 14 6 9 38 56 36
46 40 37 39 40 38 37 36 34 32 33 28 23 16 10 5 3 2 3 1 359 357 356 352 348 348 348 345 343 344 341 338 333 330 332 337 347 351 4 3 359 6 20
50 49 44 43 45 43 39 41 39 35 33 32 26 22 15 7 4 3 0 3 3 0 357 354 350 348 347 346 344 343 342 337 330 324 325 326 330 337 344 347 351 355 356
46 47 46 44 43 43 42 39 40 37 34 29 27 21 19 15 6 360 1 356 356 1 349 349 349 348 345 344 342 341 340 336 335 334 331 332 332 333 333 340 345 346 344
42 45 46 44 43 45 43 40 36 35 33 29 24 20 14 9 5 360 356 356 352 345 347 342 343 343 343 342 340 338 337 338 337 335 339 339 341 342 340 339 338 343 345
38 40 40 41 40 39 38 36 34 30 28 22 19 13 12 8 6 5 5 359 350 345 342 341 339 340 341 340 339 339 339 340 341 339 339 341 345 344 342 342 342 344 344